When you browse on this site, cookies collect data to enhance your experience and personalize the content and advertising you see.
Visit our Privacy Policy to learn more. By continuing to use the site, you agree to this use of cookies and data.
  • In Hungary
  • List of Countries
  • For 7 days
  • Water Temperature
  • Satellite Maps
  • Weather Map
  • News
  • Weather Widgets
  • user-avatar
    Login

    Hourly Weather La Rioja

    Today, 26 April, Friday

    Time Temperature Precipitation Wind Pressure Humidity
    00:00 +18°C° 0 mm 1 mps 717 mmHg 79%
    01:00 +16°C° 0 mm 1 mps 717 mmHg 81%
    02:00 +16°C° 0 mm 1 mps 717 mmHg 82%
    03:00 +16°C° 0 mm 1 mps 717 mmHg 81%
    04:00 +16°C° 0 mm 1 mps 717 mmHg 81%
    05:00 +16°C° 0 mm 1 mps 717 mmHg 81%
    06:00 +18°C° 0 mm 1 mps 717 mmHg 77%
    07:00 +19°C° 0 mm 1 mps 718 mmHg 73%
    08:00 +19°C° 0 mm 1 mps 718 mmHg 69%
    09:00 +20°C° 0 mm 2 mps 718 mmHg 64%
    10:00 +21°C° 0 mm 2 mps 718 mmHg 58%
    11:00 +24°C° 0 mm 3 mps 718 mmHg 53%
    12:00 +25°C° 0 mm 3 mps 718 mmHg 50%
    13:00 +26°C° 0 mm 3 mps 717 mmHg 47%
    14:00 +26°C° 0 mm 3 mps 717 mmHg 43%
    15:00 +26°C° 0 mm 3 mps 716 mmHg 43%
    16:00 +26°C° 0 mm 2 mps 716 mmHg 42%
    17:00 +26°C° 0 mm 2 mps 716 mmHg 41%
    18:00 +24°C° 0 mm 2 mps 716 mmHg 48%
    19:00 +22°C° 0 mm 1 mps 716 mmHg 54%
    20:00 +20°C° 0 mm 1 mps 717 mmHg 61%
    21:00 +20°C° 0 mm 1 mps 717 mmHg 63%
    22:00 +19°C° 0 mm 1 mps 717 mmHg 65%
    23:00 +17°C° 0 mm 0 mps 717 mmHg 67%

    Tomorrow, 27 April, Saturday

    Time Temperature Precipitation Wind Pressure Humidity
    00:00 +17°C° 0 mm 0 mps 717 mmHg 68%
    01:00 +16°C° 0 mm 0 mps 717 mmHg 70%
    02:00 +16°C° 0 mm 0 mps 717 mmHg 72%
    03:00 +15°C° 0 mm 0 mps 716 mmHg 72%
    04:00 +15°C° 0 mm 0 mps 716 mmHg 72%
    05:00 +15°C° 0 mm 0 mps 716 mmHg 72%
    06:00 +16°C° 0 mm 0 mps 716 mmHg 67%
    07:00 +19°C° 0 mm 1 mps 716 mmHg 61%
    08:00 +21°C° 0 mm 1 mps 717 mmHg 55%
    09:00 +23°C° 0 mm 1 mps 717 mmHg 48%
    10:00 +25°C° 0 mm 2 mps 717 mmHg 41%
    11:00 +26°C° 0 mm 3 mps 717 mmHg 35%
    12:00 +27°C° 0 mm 3 mps 716 mmHg 33%
    13:00 +28°C° 0 mm 3 mps 715 mmHg 31%
    14:00 +29°C° 0 mm 3 mps 714 mmHg 29%
    15:00 +29°C° 0 mm 3 mps 714 mmHg 31%
    16:00 +29°C° 0 mm 3 mps 713 mmHg 32%
    17:00 +28°C° 0 mm 3 mps 713 mmHg 33%
    18:00 +26°C° 0 mm 2 mps 713 mmHg 40%
    19:00 +24°C° 0 mm 2 mps 713 mmHg 48%
    20:00 +22°C° 0 mm 1 mps 714 mmHg 55%
    21:00 +21°C° 0 mm 1 mps 714 mmHg 61%
    22:00 +20°C° 0 mm 1 mps 714 mmHg 67%
    23:00 +17°C° 0 mm 0 mps 714 mmHg 73%

    Day after tomorrow, 28 April, Sunday

    Time Temperature Precipitation Wind Pressure Humidity
    00:00 +17°C° 0 mm 0 mps 714 mmHg 74%
    01:00 +19°C° 0 mm 1 mps 713 mmHg 76%
    02:00 +18°C° 0 mm 1 mps 713 mmHg 77%
    03:00 +18°C° 0 mm 1 mps 713 mmHg 79%
    04:00 +18°C° 0 mm 1 mps 713 mmHg 80%
    05:00 +18°C° 0 mm 1 mps 713 mmHg 82%
    06:00 +19°C° 0 mm 1 mps 713 mmHg 79%
    07:00 +19°C° 0 mm 1 mps 714 mmHg 76%
    08:00 +19°C° 0 mm 2 mps 714 mmHg 74%
    09:00 +21°C° 0 mm 2 mps 714 mmHg 67%
    10:00 +24°C° 0 mm 2 mps 714 mmHg 60%
    11:00 +26°C° 0 mm 3 mps 715 mmHg 53%
    12:00 +26°C° 0 mm 3 mps 714 mmHg 51%
    13:00 +27°C° 0 mm 3 mps 713 mmHg 48%
    14:00 +28°C° 0 mm 3 mps 712 mmHg 45%
    15:00 +28°C° 0 mm 2 mps 712 mmHg 45%
    16:00 +28°C° 0 mm 2 mps 712 mmHg 45%
    17:00 +28°C° 0 mm 2 mps 711 mmHg 45%
    18:00 +26°C° 0 mm 2 mps 712 mmHg 51%
    19:00 +25°C° 0 mm 2 mps 712 mmHg 57%
    20:00 +23°C° 0 mm 2 mps 712 mmHg 63%
    21:00 +21°C° 0 mm 2 mps 712 mmHg 67%
    22:00 +21°C° 0 mm 2 mps 713 mmHg 71%
    23:00 +20°C° 0 mm 2 mps 713 mmHg 75%

    29 April, Monday

    Time Temperature Precipitation Wind Pressure Humidity
    00:00 +20°C° 0 mm 2 mps 713 mmHg 77%
    01:00 +19°C° 0 mm 2 mps 713 mmHg 80%
    02:00 +19°C° 0 mm 2 mps 712 mmHg 83%
    03:00 +19°C° 0 mm 2 mps 712 mmHg 83%
    04:00 +19°C° 0 mm 2 mps 712 mmHg 84%
    05:00 +19°C° 0 mm 2 mps 712 mmHg 85%
    06:00 +19°C° 0 mm 2 mps 713 mmHg 82%
    07:00 +19°C° 0 mm 2 mps 714 mmHg 80%
    08:00 +20°C° 0 mm 2 mps 714 mmHg 78%
    09:00 +21°C° 0 mm 3 mps 714 mmHg 71%
    10:00 +24°C° 0 mm 3 mps 715 mmHg 65%
    11:00 +25°C° 0 mm 3 mps 715 mmHg 58%
    12:00 +26°C° 0 mm 4 mps 714 mmHg 55%
    13:00 +27°C° 0 mm 4 mps 713 mmHg 52%
    14:00 +28°C° 0 mm 4 mps 713 mmHg 48%
    15:00 +27°C° 0 mm 3 mps 713 mmHg 50%
    16:00 +27°C° 0 mm 3 mps 713 mmHg 51%
    17:00 +27°C° 0 mm 3 mps 713 mmHg 52%
    18:00 +25°C° 0 mm 3 mps 713 mmHg 58%
    19:00 +24°C° 0 mm 2 mps 714 mmHg 64%
    20:00 +23°C° 0 mm 2 mps 714 mmHg 69%
    21:00 +21°C° 0 mm 2 mps 714 mmHg 72%
    22:00 +21°C° 0 mm 2 mps 714 mmHg 75%
    23:00 +21°C° 0 mm 1 mps 714 mmHg 77%

    30 April, Tuesday

    Time Temperature Precipitation Wind Pressure Humidity
    00:00 +21°C° 0 mm 1 mps 714 mmHg 79%
    01:00 +21°C° 0 mm 1 mps 713 mmHg 81%
    02:00 +20°C° 0 mm 1 mps 713 mmHg 83%
    03:00 +20°C° 0 mm 1 mps 713 mmHg 84%
    04:00 +20°C° 0 mm 1 mps 713 mmHg 86%
    05:00 +19°C° 0 mm 1 mps 712 mmHg 87%
    06:00 +20°C° 0 mm 1 mps 713 mmHg 83%
    07:00 +20°C° 0 mm 2 mps 713 mmHg 80%
    08:00 +20°C° 0 mm 2 mps 714 mmHg 77%
    09:00 +21°C° 0 mm 2 mps 714 mmHg 72%
    10:00 +24°C° 0 mm 3 mps 715 mmHg 68%
    11:00 +25°C° 0 mm 3 mps 715 mmHg 63%
    12:00 +26°C° 0 mm 3 mps 714 mmHg 59%
    13:00 +27°C° 0 mm 3 mps 714 mmHg 54%
    14:00 +28°C° 0 mm 3 mps 713 mmHg 49%
    15:00 +28°C° 0 mm 3 mps 713 mmHg 49%
    16:00 +27°C° 0 mm 3 mps 713 mmHg 50%
    17:00 +27°C° 0 mm 2 mps 713 mmHg 51%
    18:00 +26°C° 0 mm 2 mps 714 mmHg 57%
    19:00 +24°C° 0 mm 2 mps 714 mmHg 64%
    20:00 +21°C° 0 mm 2 mps 715 mmHg 71%
    21:00 +21°C° 0 mm 1 mps 715 mmHg 76%
    22:00 +21°C° 0 mm 1 mps 716 mmHg 80%
    23:00 +18°C° 0 mm 0 mps 716 mmHg 85%

    1 May, Wednesday

    Time Temperature Precipitation Wind Pressure Humidity
    00:00 +18°C° 0 mm 0 mps 716 mmHg 86%
    01:00 +17°C° 0 mm 0 mps 716 mmHg 87%
    02:00 +17°C° 0 mm 0 mps 716 mmHg 89%
    03:00 +17°C° 0 mm 0 mps 715 mmHg 89%
    04:00 +17°C° 0 mm 0 mps 715 mmHg 89%
    05:00 +17°C° 0 mm 0 mps 715 mmHg 89%
    06:00 +20°C° 0 mm 1 mps 715 mmHg 85%
    07:00 +20°C° 0 mm 1 mps 716 mmHg 82%
    08:00 +21°C° 0 mm 1 mps 716 mmHg 78%
    09:00 +23°C° 0 mm 1 mps 716 mmHg 71%
    10:00 +24°C° 0 mm 2 mps 716 mmHg 65%
    11:00 +25°C° 0 mm 2 mps 716 mmHg 59%
    12:00 +26°C° 0 mm 2 mps 715 mmHg 55%
    13:00 +27°C° 0 mm 2 mps 714 mmHg 51%
    14:00 +28°C° 0 mm 3 mps 713 mmHg 47%
    15:00 +28°C° 0 mm 2 mps 713 mmHg 47%
    16:00 +28°C° 0 mm 2 mps 713 mmHg 47%
    17:00 +28°C° 0 mm 2 mps 713 mmHg 46%
    18:00 +27°C° 0 mm 2 mps 713 mmHg 54%
    19:00 +25°C° 0 mm 2 mps 713 mmHg 61%
    20:00 +23°C° 0 mm 2 mps 713 mmHg 68%
    21:00 +22°C° 0 mm 1 mps 713 mmHg 73%
    22:00 +22°C° 0 mm 1 mps 713 mmHg 77%
    23:00 +19°C° 0 mm 0 mps 713 mmHg 82%
    Show more